This is the latest recevied weather packets stored in our database for station/object KC9GSD. If no packets are shown the sender has not sent any weather packets the latest 10 day(s).
| Time | Temp. | Humidity | Pressure | Rain* | Wind** | Luminosity | Snow |
|---|---|---|---|---|---|---|---|
| 1777502939 | 23.89° C | 74% | 1010.2 hPa | 0 mm | - | 62 W/m² | - |
| 1777502637 | 23.89° C | 74% | 1010.1 hPa | 0 mm | - | 49 W/m² | - |
| 1777502334 | 23.89° C | 75% | 1010.1 hPa | 0 mm | - | 50 W/m² | - |
| 1777502030 | 23.89° C | 72% | 1009.9 hPa | 0 mm | - | 91 W/m² | - |
| 1777501727 | 23.89° C | 74% | 1009.9 hPa | 0 mm | - | 103 W/m² | - |
| 1777501425 | 23.89° C | 74% | 1009.9 hPa | 0 mm | - | 115 W/m² | - |
| 1777501122 | 23.89° C | 73% | 1010.4 hPa | 0 mm | - | 75 W/m² | - |
| 1777500820 | 24.44° C | 75% | 1010.6 hPa | 0 mm | - | 50 W/m² | - |
| 1777500517 | 24.44° C | 76% | 1010.7 hPa | 0 mm | - | 66 W/m² | - |
| 1777500213 | 25° C | 74% | 1010.7 hPa | 0 mm | - | 71 W/m² | - |
| 1777499910 | 25° C | 73% | 1010.6 hPa | 0 mm | - | 81 W/m² | - |
| 1777499606 | 25° C | 72% | 1010.7 hPa | 0 mm | - | 110 W/m² | - |
| 1777499304 | 25° C | 75% | 1010.6 hPa | 0 mm | - | 133 W/m² | - |
| 1777499001 | 25° C | 76% | 1010.5 hPa | 0 mm | - | 108 W/m² | - |
| 1777498697 | 25.56° C | 71% | 1010.4 hPa | 0 mm | - | 66 W/m² | - |
| 1777498394 | 25.56° C | 71% | 1010 hPa | 0 mm | - | 97 W/m² | - |
| 1777498091 | 26.11° C | 72% | 1010 hPa | 0 mm | - | 178 W/m² | - |
| 1777497788 | 26.11° C | 70% | 1010.4 hPa | 0 mm | - | 165 W/m² | - |
| 1777497484 | 26.67° C | 69% | 1010.6 hPa | 0 mm | - | 199 W/m² | - |
| 1777497181 | 26.11° C | 69% | 1010.7 hPa | 0 mm | - | 304 W/m² | - |
| 1777496878 | 26.11° C | 68% | 1010.7 hPa | 0 mm | - | 257 W/m² | - |
| 1777496574 | 26.11° C | 68% | 1010.9 hPa | 0 mm | - | 300 W/m² | - |
| 1777496270 | 26.11° C | 69% | 1010.8 hPa | 0 mm | - | 281 W/m² | - |
| 1777495966 | 26.67° C | 67% | 1010.7 hPa | 0 mm | - | 307 W/m² | - |
| 1777495663 | 26.67° C | 67% | 1010.8 hPa | 0 mm | - | 348 W/m² | - |
* Rain latest hour (hover to see other rain measurements)
** Current wind speed in m/s (hover to see current wind gust speed)